OE3UKW Weather Reports


Display with metric or nautical units.
time (UTC)temp
F
wind
direction
speed
MPH
gust
MPH
rain 1hr
in
rain 24hr
in
rain mn
in
humidity
%
barometer
mb
20260506044110 54 142 2.0 3.0 0.00 0.00 0.00 67 1009.5
20260506043110 54 142 1.0 3.0 0.00 0.00 0.00 68 1009.4
20260506042110 53 144 4.0 6.0 0.00 0.00 0.00 67 1009.3
20260506041110 53 124 0.0 2.0 0.00 0.00 0.00 67 1009.2
20260506040110 53 124 3.0 5.0 0.00 0.00 0.00 67 1009.0
20260506035110 53 124 4.0 5.0 0.00 0.00 0.00 67 1009.0
20260506034110 53 127 4.0 7.0 0.00 0.00 0.00 67 1008.9
20260506033110 53 135 5.0 8.0 0.00 0.00 0.00 67 1008.9
20260506032110 53 105 0.0 4.0 0.00 0.00 0.00 67 1008.9
20260506031110 52 135 1.0 3.0 0.00 0.00 0.00 67 1009.0
20260506030110 52 159 4.0 7.0 0.00 0.00 0.00 67 1009.1
20260506025110 52 194 2.0 3.0 0.00 0.00 0.00 67 1009.0
20260506024109 52 204 2.0 5.0 0.00 0.00 0.00 67 1009.1
20260506023110 52 213 3.0 4.0 0.00 0.00 0.00 67 1009.1
20260506022109 52 200 1.0 4.0 0.00 0.00 0.00 66 1009.0
20260506021109 52 197 3.0 5.0 0.00 0.00 0.00 65 1008.9
20260506020109 53 170 0.0 0.0 0.00 0.00 0.00 64 1008.9
20260506015109 53 169 1.0 5.0 0.00 0.00 0.00 64 1008.8
20260506014109 53 171 3.0 5.0 0.00 0.00 0.00 64 1008.9
20260506013109 54 163 1.0 5.0 0.00 0.00 0.00 63 1008.9
20260506012109 54 169 2.0 4.0 0.00 0.00 0.00 63 1008.9
20260506011109 54 169 3.0 5.0 0.00 0.00 0.00 62 1008.8
20260506005112 55 132 3.0 3.0 0.00 0.00 0.00 60 1008.6
20260506004111 56 132 0.0 0.0 0.00 0.00 0.00 60 1008.5
20260506003111 56 133 0.0 0.0 0.00 0.00 0.00 61 1008.4
20260506002111 56 133 0.0 0.0 0.00 0.00 0.00 61 1008.3
20260506001111 56 132 0.0 2.0 0.00 0.00 0.00 61 1008.3
20260506000111 56 150 3.0 4.0 0.00 0.00 0.00 60 1008.0
20260505235111 56 153 0.0 0.0 0.00 0.00 0.00 60 1008.0
20260505234111 56 153 0.0 0.0 0.00 0.00 0.00 60 1007.9
20260505233111 56 153 0.0 0.0 0.00 0.00 0.00 59 1007.8
20260505232111 56 155 2.0 3.0 0.00 0.00 0.00 59 1007.7
20260505231111 57 144 1.0 3.0 0.00 0.00 0.00 57 1007.7
20260505230111 57 144 2.0 4.0 0.00 0.00 0.00 57 1007.5
20260505225111 58 157 3.0 5.0 0.00 0.00 0.00 56 1007.5
20260505224111 58 146 3.0 5.0 0.00 0.00 0.00 55 1007.3
20260505223111 59 121 4.0 7.0 0.00 0.00 0.00 55 1007.3
20260505222111 59 123 5.0 9.0 0.00 0.00 0.00 54 1007.0
20260505221111 60 169 5.0 9.0 0.00 0.00 0.00 54 1007.1
20260505220111 60 167 7.0 10.0 0.00 0.00 0.00 54 1007.0
20260505215111 60 147 7.0 11.0 0.00 0.00 0.00 53 1006.9
20260505214111 60 156 8.0 13.0 0.00 0.00 0.00 52 1006.8
20260505213111 61 136 8.0 12.0 0.00 0.00 0.00 51 1006.8
20260505212111 61 162 10.0 14.0 0.00 0.00 0.00 51 1006.9
20260505211111 62 142 8.0 12.0 0.00 0.00 0.00 50 1006.8
20260505210111 62 144 9.0 12.0 0.00 0.00 0.00 50 1006.9
20260505205111 62 140 9.0 13.0 0.00 0.00 0.00 49 1006.7
20260505204111 62 140 10.0 13.0 0.00 0.00 0.00 49 1006.7
20260505203111 63 153 7.0 11.0 0.00 0.00 0.00 49 1006.5
20260505202111 63 160 10.0 15.0 0.00 0.00 0.00 48 1006.6
20260505201111 63 148 11.0 17.0 0.00 0.00 0.00 48 1006.5
20260505200111 63 148 12.0 17.0 0.00 0.00 0.00 47 1006.4
20260505195111 64 153 9.0 13.0 0.00 0.00 0.00 47 1006.4
20260505194111 64 158 11.0 15.0 0.00 0.00 0.00 46 1006.3
20260505193110 64 138 11.0 15.0 0.00 0.00 0.00 46 1006.4
20260505192111 65 140 10.0 16.0 0.00 0.00 0.00 45 1006.5
20260505191110 65 150 9.0 16.0 0.00 0.00 0.00 44 1006.5
20260505190110 65 162 12.0 18.0 0.00 0.00 0.00 43 1006.5
20260505185110 66 136 11.0 16.0 0.00 0.00 0.00 43 1006.5
20260505184111 67 174 12.0 21.0 0.00 0.00 0.00 41 1006.4
20260505183110 67 160 10.0 16.0 0.00 0.00 0.00 41 1006.4
20260505182110 68 166 10.0 17.0 0.00 0.00 0.00 40 1006.5
20260505181110 68 154 14.0 19.0 0.00 0.00 0.00 40 1006.3
20260505180110 69 159 13.0 22.0 0.00 0.00 0.00 39 1006.3
20260505175110 69 157 11.0 22.0 0.00 0.00 0.00 38 1006.3
20260505174110 69 159 11.0 19.0 0.00 0.00 0.00 38 1006.3
20260505173125 70 164 10.0 21.0 0.00 0.00 0.00 38 1006.3
20260505172110 70 138 11.0 23.0 0.00 0.00 0.00 37 1006.3
20260505171110 70 173 13.0 24.0 0.00 0.00 0.00 37 1006.2
20260505170110 71 144 12.0 22.0 0.00 0.00 0.00 36 1006.3
20260505165110 71 124 17.0 25.0 0.00 0.00 0.00 35 1006.3
20260505164110 72 156 9.0 22.0 0.00 0.00 0.00 34 1006.5
20260505163110 73 148 16.0 25.0 0.00 0.00 0.00 33 1006.6
20260505162110 74 134 15.0 26.0 0.00 0.00 0.00 32 1006.5
20260505161110 75 160 11.0 24.0 0.00 0.00 0.00 31 1006.5
20260505160110 76 182 17.0 32.0 0.00 0.00 0.00 30 1006.5
20260505153110 78 163 26.0 35.0 0.00 0.00 0.00 26 1006.4
20260505152110 79 198 21.0 34.0 0.00 0.00 0.00 26 1006.4
20260505151110 79 171 18.0 32.0 0.00 0.00 0.00 26 1006.3
20260505150110 80 165 19.0 39.0 0.00 0.00 0.00 24 1006.3
20260505140110 82 173 15.0 26.0 0.00 0.00 0.00 23 1006.9
20260505130110 82 167 13.0 33.0 0.00 0.00 0.00 17 1007.3
20260505124110 82 161 22.0 30.0 0.00 0.00 0.00 17 1007.8
20260505123110 81 192 18.0 30.0 0.00 0.00 0.00 18 1007.8
20260505122109 81 130 17.0 29.0 0.00 0.00 0.00 19 1008.1
20260505120111 80 166 9.0 25.0 0.00 0.00 0.00 23 1008.3
20260505115111 80 175 15.0 23.0 0.00 0.00 0.00 22 1008.5
20260505114111 80 159 15.0 30.0 0.00 0.00 0.00 21 1008.7
20260505113111 80 184 16.0 29.0 0.00 0.00 0.00 21 1008.6
20260505112111 79 175 14.0 25.0 0.00 0.00 0.00 25 1008.8
20260505111111 78 152 19.0 26.0 0.00 0.00 0.00 25 1008.8
20260505110111 78 138 19.0 24.0 0.00 0.00 0.00 25 1009.0
20260505102111 76 130 14.0 23.0 0.00 0.00 0.00 31 1009.3
20260505101110 75 145 16.0 18.0 0.00 0.00 0.00 32 1009.5
20260505100110 74 115 13.0 20.0 0.00 0.00 0.00 32 1009.7
20260505095110 74 140 12.0 24.0 0.00 0.00 0.00 34 1010.0
20260505094110 73 141 12.0 19.0 0.00 0.00 0.00 35 1010.1
20260505093110 71 146 9.0 18.0 0.00 0.00 0.00 35 1010.1
20260505092110 71 156 7.0 14.0 0.00 0.00 0.00 37 1010.2
20260505091110 70 165 7.0 14.0 0.00 0.00 0.00 39 1010.2
20260505090110 70 150 12.0 17.0 0.00 0.00 0.00 38 1010.2
20260505085110 70 174 13.0 19.0 0.00 0.00 0.00 38 1010.3
20260505084110 70 175 11.0 22.0 0.00 0.00 0.00 37 1010.3
20260505083110 69 146 11.0 16.0 0.00 0.00 0.00 38 1010.4
20260505082110 68 169 11.0 15.0 0.00 0.00 0.00 40 1010.4
20260505081110 66 155 9.0 15.0 0.00 0.00 0.00 44 1010.4
20260505080110 65 162 9.0 13.0 0.00 0.00 0.00 42 1010.5
20260505075110 65 154 10.0 12.0 0.00 0.00 0.00 44 1010.5
20260505074110 65 147 9.0 14.0 0.00 0.00 0.00 43 1010.4
20260505073110 65 176 12.0 15.0 0.00 0.00 0.00 42 1010.6
20260505072110 66 162 12.0 15.0 0.00 0.00 0.00 42 1010.6
20260505071110 66 163 8.0 14.0 0.00 0.00 0.00 41 1010.6
20260505070110 65 119 10.0 14.0 0.00 0.00 0.00 42 1010.6
20260505065110 64 175 9.0 12.0 0.00 0.00 0.00 43 1010.6
20260505064110 64 140 10.0 16.0 0.00 0.00 0.00 43 1010.6
20260505063110 62 120 13.0 16.0 0.00 0.00 0.00 45 1010.6
20260505062110 62 170 8.0 15.0 0.00 0.00 0.00 46 1010.6
20260505061110 60 168 11.0 15.0 0.00 0.00 0.00 47 1010.5
20260505060110 59 134 7.0 9.0 0.00 0.00 0.00 51 1010.5
20260505055110 58 138 9.0 11.0 0.00 0.00 0.00 52 1010.4
20260505054110 57 169 6.0 8.0 0.00 0.00 0.00 52 1010.4
20260505053110 56 156 4.0 8.0 0.00 0.00 0.00 54 1010.5
20260505052110 55 155 3.0 6.0 0.00 0.00 0.00 56 1010.5
20260505051110 54 180 4.0 7.0 0.00 0.00 0.00 56 1010.5
20260505050110 54 172 5.0 8.0 0.00 0.00 0.00 55 1010.3